ZHONGXING-12

Last updated on Sun Apr 12 2026 00:02:53 GMT+0000 (Coordinated Universal Time)

1 39017U 12067A 26101.53802413 -.00000205 00000+0 00000+0 0 9998 2 39017 0.0385 91.0614 0003426 287.9830 101.9037 1.00271943 48843
UTC large
Height (km)
Speed (km/s)
/
Latitude / Longitude
Inclination (degrees)
Orbital Period (minutes)
Azimuth
Elevation
Range (km)
Doppler Factor

Next 0 passes for location: London (51.5072 / 0.1276)

Sorry there are no passes over London.
ZHONGXING-12